Aérodrome :
LOGIN :

S'inscrire | Disclaimer

   EN    FR    IT 

 










Légende :    VFR   VFR Marginal   IFR   IFR Intensif   IFR Très Intensif
Visi : 
Plafond : 
>= 8 km
>= 3000ft
5 à 8 km
1000 à 3000 ft
1500m à 5 km
500 à 1000 ft
800 à 1500m
200 à 500 ft
< 800m
< 200 ft
Symboles :   Orages  Brouillard  Fortes neiges  Fortes précipitations  Vent > 20 kt
SIGMETs :   Divers  Orages  Givrage  Turbulence  Onde Orograph.  Cendres Volcan.






- Altitude de l'aérodrome : 289 ft
- Code IATA : ZAD


LDZD - Zadar

DERNIER METAR :
  • 192030Z 11004KT 080V150 CAVOK 06/02 Q1014

METARs EXPIRÉS :
  • 192000Z 08005KT CAVOK 08/02 Q1014
  • 191930Z 06008KT CAVOK 09/03 Q1014
  • 191900Z 32005KT CAVOK 09/03 Q1013
  • 191830Z 28005KT 9999 FEW040 10/04 Q1013 BECMG VRB02KT
  • 191800Z 29007KT 9999 FEW040 11/04 Q1013 BECMG VRB02KT

TAF TAF LDZD
Valide du 19 à 18h jusqu'au 20 à 18h UTC


191725Z 1918/2018 29008KT 9999 SCT040 TX15/2012Z TN05/2004Z
BECMG 1918/1920 VRB02KT
BECMG 2009/2011 28008KT



MET'MAP, la Météo Aéronautique d'un coup d'oeil ! - Copyright ORBIFLY Décembre 2007 - Disclaimer

ORBIFLY MET'MAP TEAM :

Programmation & Développement : Alexandra Zaïnal
Sur une idée originale de : Baudouin d'Aumeries
Assistance à la programmation : Marc-Olivier Méhu
Soutien technique & logistique : Manuel Goepfert

Contact : metmap@orbifly.com




SOURCES & CREDITS :

   NOAA